Location: Asarope
(8.2500°N, 4.4833°E)
Time: 20:26:38
(UTC+00:00)

Hubble Space Telescope - Pass Details

Date: 07 August 2021
Orbit: 535 x 539 km, 28.5° (Epoch: 20 September)

Event Time Altitude Azimuth Distance (km) Brightness Sun altitude
Rises 19:50:28 0° 288° (WNW) 2,667 5.6 -26.4°
Reaches altitude 10° 19:52:48 10° 281° (W) 1,777 4.4 -26.9°
Enters shadow 19:55:30 32° 251° (WSW) 922 2.3 -27.6°
